Location: Palo Alto
(37.4420°N, 122.1420°W)
Time: 17:07:05
(UTC-07:00)

ISS - All Passes

Search period start: 26 June 2017 00:00
Search period end: 06 July 2017 00:00
Orbit: 401 x 408 km, 51.6° (Epoch: 27 June)

Date Brightness Start Highest point End Pass type
(mag) Time Alt. Az. Time Alt. Az. Time Alt. Az.
26 Jun - 07:57:21 10° SSW 08:00:14 30° SE 08:03:09 10° ENE daylight
26 Jun - 09:33:52 10° W 09:36:43 26° NNW 09:39:33 10° NNE daylight
26 Jun - 14:26:51 10° NNW 14:29:29 21° NNE 14:32:07 10° E daylight
26 Jun - 16:02:57 10° WNW 16:06:05 42° SW 16:09:13 10° SSE daylight
27 Jun - 07:06:17 10° SSE 07:08:14 15° SE 07:10:11 10° E daylight
27 Jun - 08:41:15 10° WSW 08:44:25 47° NW 08:47:36 10° NE daylight
27 Jun - 10:20:35 10° NW 10:21:33 11° NNW 10:22:32 10° N daylight
27 Jun - 13:35:07 10° NNW 13:37:04 15° NNE 13:39:01 10° ENE daylight
27 Jun - 15:10:39 10° NW 15:13:57 89° NNE 15:17:14 10° SE daylight
28 Jun - 07:48:56 10° SW 07:52:12 85° SE 07:55:29 10° NE daylight
28 Jun - 09:27:02 10° WNW 09:29:04 15° NNW 09:31:05 10° NNE daylight
28 Jun - 12:43:44 10° N 12:44:33 11° NNE 12:45:22 10° NNE daylight
28 Jun - 14:18:33 10° NW 14:21:44 44° NE 14:24:53 10° ESE daylight
28 Jun - 15:55:48 10° W 15:57:57 16° SW 16:00:05 10° S daylight
29 Jun - 06:57:00 10° SSW 07:00:03 39° SE 07:03:08 10° ENE daylight
29 Jun - 08:33:58 10° W 08:36:37 22° NNW 08:39:18 10° NNE daylight
29 Jun - 13:26:35 10° NNW 13:29:24 25° NNE 13:32:12 10° E daylight
29 Jun - 15:02:54 10° WNW 15:05:54 32° SW 15:08:52 10° SSE daylight
30 Jun - 06:05:35 10° S 06:07:59 19° SE 06:10:23 10° E daylight
30 Jun - 07:41:11 10° WSW 07:44:16 37° NW 07:47:21 10° NE daylight
30 Jun - 12:34:44 10° NNW 12:36:58 17° NNE 12:39:11 10° ENE daylight
30 Jun - 14:10:28 10° NW 14:13:45 70° SW 14:17:01 10° SE daylight
01 Jul - 06:48:43 10° SW 06:51:58 74° NW 06:55:15 10° NE daylight
01 Jul - 08:27:14 10° NW 08:28:56 13° NNW 08:30:39 10° N daylight
01 Jul - 11:43:08 10° N 11:44:27 12° NNE 11:45:46 10° NE daylight
01 Jul - 13:18:16 10° NW 13:21:31 56° NE 13:24:45 10° ESE daylight
01 Jul - 14:56:06 10° W 14:57:38 13° SW 14:59:09 10° SSW daylight
02 Jul - 05:56:35 10° SSW 05:59:46 51° SE 06:02:57 10° ENE daylight
02 Jul - 07:33:59 10° WNW 07:36:26 19° NNW 07:38:54 10° NNE daylight
02 Jul - 12:26:12 10° NNW 12:29:10 30° NNE 12:32:08 10° E daylight
02 Jul - 14:02:48 10° WNW 14:05:34 25° SW 14:08:20 10° S daylight
03 Jul - 05:04:55 10° S 05:07:37 24° SE 05:10:20 10° ENE visible
03 Jul - 06:41:03 10° W 06:44:00 30° NNW 06:46:58 10° NNE daylight
03 Jul - 11:34:17 10° NNW 11:36:44 19° NNE 11:39:11 10° ENE daylight
03 Jul - 13:10:12 10° WNW 13:13:25 53° SW 13:16:38 10° SE daylight
04 Jul - 04:14:11 10° SSE 04:15:33 12° SE 04:16:55 10° ESE visible
04 Jul - 05:48:26 10° WSW 05:51:39 57° NW 05:54:52 10° NE daylight
04 Jul - 07:27:23 10° NW 07:28:42 12° NNW 07:30:01 10° N daylight
04 Jul - 10:42:31 10° N 10:44:12 13° NNE 10:45:53 10° NE daylight
04 Jul - 12:17:54 10° NW 12:21:10 72° NE 12:24:27 10° SE daylight
05 Jul - 04:56:08 10° SW 04:59:22 68° SE 05:02:37 10° NE visible
05 Jul - 06:33:56 10° WNW 06:36:08 17° NNW 06:38:22 10° NNE daylight
05 Jul - 11:25:44 10° NW 11:28:50 36° NE 11:31:54 10° ESE daylight
05 Jul - 13:02:39 10° W 13:05:07 20° SW 13:07:35 10° S daylight
